ATLAS 5 CENTAUR DEB, 57588

Orbit data source: Space-Track

ATLAS 5 CENTAUR DEB, 57588 is space debris in HEO originally from a launch on Wed, 17 Oct 2018 UTC launched from the Air Force Eastern Test Range (AFETR). Debris objects in space refer to the collection of defunct objects orbiting the Earth. Examples of debris include non-operational satellites, rocket bodies, and fragments generated from explosions, collisions, or faulty payload assembly.

Loading next visibility...
Identifier
57588, 2018-079HP
Orbit
HEO
Country
Flag of USUS
Related business
Flag of USUnited Launch Alliance/Lockheed Martin (US)
Manufacturer
ULA Decatur
Mission
Spacecraft
Bus & Motor
Unknown
Mass
Unknown
Launch date (UTC)
2018-10-17 (8 years ago)
Launch vehicle
Unknown
Launch site
Air Force Eastern Test Range (AFETR)
Object type
Payload
Rocket body
Debris
Shape & HBR
Unknown shape, 1.1 m
Radar Cross Section
RCS unknown

Expand to show TLE details & history
Last TLE update: 2 months ago

TLE from 2 months ago
0 ATLAS 5 CENTAUR DEB
1 57588U 18079HP  26122.38349327 -.00000141  00000-0  00000-0 0  9997
2 57588  13.1515  28.8968 4809274 347.1056   4.0884  1.88893097 21046
Epoch: 2026-05-02T09:12Z
TLE epoch observation values (Epoch: 2026-05-02T09:12:13.818Z)
Latitude
-0.00012°
Longitude
30.50187°
Altitude
8,064.966 km
Speed
6.386 km/s
True Right ascension
01h 55m 26s
True Declination
0° 00' 00"
Sunlit
Object was in daylight at epoch
Visualization orbit readout
Latitude
Unknown
Longitude
Unknown
Altitude
Unknown
Speed
Unknown
Apparent Right ascension
Unknown
Apparent Declination
Unknown
Sunlit
N/A
Visualization observer readout
Local Sidereal Time
21:42:23
Azimuth
Unknown
Elevation
Unknown
Doppler factor
Unknown
Orbital elements
Apogee altitude
34,562.954 km
Perigee altitude
7,971.924 km
Semi-major axis
27,645.576 km
Eccentricity
0.48093
Inclination
13.1515°
RAAN
28.8968°
Arg. of periapsis
347.1056°
True anomaly
13.22717°
Mean anomaly
4.0884°
Eccentric anomaly
7.85359°
Mean motion
0.47218 °/min
Orbital period
762.43 mins
BSTAR
0
Loading maneuver chart data...
Computing Atmospheric mass density...

Documentation

Showing up to 5 results
|